Regional Weather Roundup
Issued by NWS

Home | Current Version | Previous Version | Text Only | Print | Product List | Glossary Off
Versions: 1 2 3 4 5 6 7 8 9 10 11 12 13 14 15 16 17 18 19 20 21 22 23 24 25 26 27 28 29 30 31 32 33 34 35 36 37 38 39 40 41 42 43 44 45 46 47 48 49 50

000
ASUS44 KMEG 240110
RWRTN
TENNESSEE HOURLY STATE WEATHER ROUNDUP
NATIONAL WEATHER SERVICE MEMPHIS TN
800 PM CDT WED AUG 23 2017

TNZ002-004-019-021-049-052-054-088>092-240200-
WEST TENNESSEE

CITY           SKY/WX    TMP DP  RH WIND       PRES   REMARKS
MEMPHIS INTL   CLOUDY    76  63  64 NE9       29.98R
NWS MEMPHIS      N/A     76 N/A N/A MISG        N/A
JACKSON        CLOUDY    74  63  68 N7        29.99R
DYERSBURG      PTCLDY    73  60  63 N5        30.00S
SOMERVILLE     CLEAR     72  66  83 CALM      29.98R
COVINGTON      CLEAR     70  63  78 N3        29.99S
UNION CITY     CLEAR     70  61  73 CALM      29.98S
BOLIVAR        CLEAR     72  66  83 CALM      29.98R
PARIS          CLEAR     68  64  88 CALM      29.98S
HUNTINGDON     CLEAR     72  61  68 CALM      29.98S
LEXINGTON      CLEAR     70  66  88 CALM      29.98R
SELMER         CLEAR     68  66  94 CALM      29.98R
SAVANNAH       CLEAR     70  66  88 CALM      29.97R
$$

TNZ008-025-027-028-033-062-065-066-240200-
NORTH MIDDLE TENNESSEE

CITY           SKY/WX    TMP DP  RH WIND       PRES   REMARKS
NASHVILLE      CLOUDY    75  57  53 N6        29.98S
PORTLAND       CLEAR     72  63  73 CALM      29.98S
CLARKSVILLE    PTCLDY    71  58  63 N5        29.99S
SMYRNA         CLOUDY    72  62  71 N5        29.98S
COOKEVILLE       N/A     66  63  88 CALM      29.98R
GALLATIN       CLEAR     72  63  73 NW5       30.00R
CROSSVILLE     PTCLDY    67  59  75 NW3       30.01S
$$

TNZ061-075-076-078-094-096-097-240200-
SOUTH MIDDLE TENNESSEE

CITY           SKY/WX    TMP DP  RH WIND       PRES   REMARKS
FAYETTEVILLE   CLEAR     72  61  68 N8        29.96S
TULLAHOMA      CLEAR     70  57  64 N3        29.99R
MCMINNVILLE    CLEAR     70  63  78 N5        29.98S
COLUMBIA       CLEAR     72  61  68 CALM      29.96S
SHELBYVILLE    CLEAR     68  63  83 N5        29.97R
$$

TNZ017-018-042-046-047-240200-
NORTHEAST TENNESSEE

CITY           SKY/WX    TMP DP  RH WIND       PRES   REMARKS
TRI CITIES     MOCLDY    73  63  70 N6        29.95R
ELIZABETHTON   MOCLDY    75  63  64 CALM      29.94R
$$

TNZ012-013-036-069-073-074-240200-
CENTRAL EAST TENNESSEE

CITY           SKY/WX    TMP DP  RH WIND       PRES   REMARKS
KNOXVILLE      MOCLDY    76  60  57 N9        29.92R
OAK RIDGE      PTCLDY    76  59  55 CALM      29.95R
DOWNTOWN KNOXV   N/A     77  63  61 CALM      29.92R
GATLINBURG     MOCLDY    75  61  60 NW3       29.93R
MORRISTOWN     CLEAR     75  63  64 N9        29.94R
JACKSBORO      CLEAR     73  61  64 CALM      29.99R
$$

TNZ083-085-099-240200-
SOUTHEAST TENNESSEE

CITY           SKY/WX    TMP DP  RH WIND       PRES   REMARKS
CHATTANOOGA    CLOUDY    78  59  51 NW9       29.93R
DAYTON         PTCLDY    75  63  64 N7        29.93R
$$

SKY/WX REPORTED AS FAIR MEANS FEW OR NO CLOUDS BELOW
12 THOUSAND FEET.




USA.gov is the U.S. government's official web portal to all federal, state and local government web resources and services.